Location: Novokuznetsk
(53.7500°N, 87.1000°E)
Time: 23:57:24
(UTC+06:00)

ISS - Pass Details

Date: 18 May 2021
Orbit: 417 x 422 km, 51.6° (Epoch: 16 June)

Event Time Altitude Azimuth Distance (km) Brightness Sun altitude
Rises 00:38:49 0° 276° (W) 2,371 0.1 -16.4°
Reaches altitude 10° 00:40:59 10° 269° (W) 1,506 -1.0 -16.4°
Enters shadow 00:44:09 43° 200° (SSW) 600 -3.5 -16.3°
